sat.trackr.live / text

‹ back to catalog

FORGESTAR-1

NORAD 64546 · 2025-135U

PAYLOAD ACTIVE UNKNOWN

§ Identity

Operator
Country
UK
Launch date
2025-06-23
Launch site
AFWTR
Launch vehicle
Mass (kg)
RCS (m²)

External: N2YO · Heavens-Above · Gunter

§ Orbital elements

Epoch: 2026-09-21T21:27:12.594528Z

Period
94.38 min
Inclination
97.4763°
Eccentricity
0.0001467
Mean motion
15.25691840 rev/d
Perigee alt
487.7 km
Apogee alt
489.7 km
Semi-major
6,866.8 km
B*
2.6974e-4
RAAN
20.4699°
Arg perigee
126.0658°
Mean anomaly
234.0716°
Rev number
6,964

§ Raw data

FORGESTAR-11 64546U 25135U   26264.89389577  .00006799  00000+0  26974-3 0  99982 64546  97.4763  20.4699 0001467 126.0658 234.0716 15.25691840 69648

JSON: /api/v1/satellites/64546 · /tle

For live sub-satellite position, see the globe view (requires WebGL).

§ Visibility from observer

Set your observer location to see the next 7 days of passes ≥ 10°. The values pass through the URL so the page stays shareable.

No JS? Fill the form by hand. The geolocation button needs JavaScript.

§ Radio — SatNOGS DB

ModeDescriptionDownlinkUplink
FM Mode S - Transmitter 1 2.261 GHz
FM Mode S - Transmitter 2 2.262 GHz

2 transmitters · refreshed weekly from db.satnogs.org